When you browse on this site, cookies collect data to enhance your experience and personalize the content and advertising you see.
Visit our Privacy Policy to learn more. By continuing to use the site, you agree to this use of cookies and data.
EN

Hourly Weather Gokak

Today, 25 September, Friday

Time Temperature Precipitation Wind Pressure Humidity
00:00 +24°C° 0 mm 3 mps 702 mmHg 92%
01:00 +24°C° 0 mm 3 mps 702 mmHg 92%
02:00 +24°C° 0 mm 3 mps 702 mmHg 92%
03:00 +24°C° 0 mm 3 mps 702 mmHg 93%
04:00 +22°C° 0 mm 3 mps 701 mmHg 93%
05:00 +22°C° 0 mm 3 mps 701 mmHg 92%
06:00 +24°C° 0 mm 3 mps 702 mmHg 89%
07:00 +25°C° 0 mm 3 mps 703 mmHg 86%
08:00 +26°C° 0 mm 3 mps 703 mmHg 83%
09:00 +27°C° 0.1 mm 3 mps 703 mmHg 79%
10:00 +28°C° 0.1 mm 4 mps 703 mmHg 76%
11:00 +29°C° 0.1 mm 4 mps 703 mmHg 72%
12:00 +30°C° 0.4 mm 4 mps 702 mmHg 70%
13:00 +30°C° 0.4 mm 4 mps 702 mmHg 68%
14:00 +32°C° 0.4 mm 5 mps 701 mmHg 66%
15:00 +30°C° 1.1 mm 5 mps 701 mmHg 71%
16:00 +29°C° 1.1 mm 6 mps 701 mmHg 76%
17:00 +28°C° 1.1 mm 6 mps 701 mmHg 81%
18:00 +27°C° 0.9 mm 6 mps 701 mmHg 83%
19:00 +26°C° 0.9 mm 6 mps 702 mmHg 86%
20:00 +25°C° 0.9 mm 5 mps 702 mmHg 89%
21:00 +25°C° 0.2 mm 5 mps 702 mmHg 90%
22:00 +25°C° 0.2 mm 4 mps 702 mmHg 91%
23:00 +25°C° 0.2 mm 4 mps 702 mmHg 91%

Tomorrow, 26 September, Saturday

Time Temperature Precipitation Wind Pressure Humidity
00:00 +23°C° 0.8 mm 4 mps 702 mmHg 92%
01:00 +23°C° 0.8 mm 4 mps 702 mmHg 92%
02:00 +23°C° 0.8 mm 4 mps 701 mmHg 92%
03:00 +23°C° 0.6 mm 4 mps 701 mmHg 92%
04:00 +23°C° 0.6 mm 4 mps 701 mmHg 91%
05:00 +23°C° 0.6 mm 4 mps 701 mmHg 91%
06:00 +23°C° 0 mm 4 mps 701 mmHg 89%
07:00 +25°C° 0 mm 3 mps 702 mmHg 87%
08:00 +25°C° 0 mm 3 mps 703 mmHg 85%
09:00 +26°C° 0 mm 4 mps 703 mmHg 82%
10:00 +26°C° 0 mm 4 mps 703 mmHg 79%
11:00 +27°C° 0 mm 4 mps 703 mmHg 76%
12:00 +27°C° 1.1 mm 5 mps 702 mmHg 77%
13:00 +27°C° 1.1 mm 5 mps 702 mmHg 77%
14:00 +27°C° 1.1 mm 5 mps 701 mmHg 78%
15:00 +26°C° 2.4 mm 5 mps 701 mmHg 81%
16:00 +26°C° 2.4 mm 5 mps 701 mmHg 83%
17:00 +25°C° 2.4 mm 5 mps 701 mmHg 86%
18:00 +23°C° 0.3 mm 5 mps 701 mmHg 87%
19:00 +23°C° 0.3 mm 4 mps 702 mmHg 89%
20:00 +24°C° 0.3 mm 3 mps 702 mmHg 90%
21:00 +23°C° 0 mm 4 mps 702 mmHg 89%
22:00 +22°C° 0 mm 4 mps 702 mmHg 89%
23:00 +22°C° 0 mm 4 mps 702 mmHg 89%

Day after tomorrow, 27 September, Sunday

Time Temperature Precipitation Wind Pressure Humidity
00:00 +22°C° 0 mm 3 mps 702 mmHg 90%
01:00 +23°C° 0 mm 2 mps 702 mmHg 90%
02:00 +23°C° 0 mm 2 mps 701 mmHg 90%
03:00 +23°C° 0 mm 2 mps 701 mmHg 91%
04:00 +23°C° 0 mm 2 mps 701 mmHg 91%
05:00 +23°C° 0 mm 2 mps 701 mmHg 92%
06:00 +23°C° 0 mm 2 mps 702 mmHg 89%
07:00 +24°C° 0 mm 3 mps 703 mmHg 86%
08:00 +25°C° 0 mm 3 mps 703 mmHg 83%
09:00 +26°C° 0 mm 3 mps 703 mmHg 79%
10:00 +27°C° 0 mm 4 mps 704 mmHg 74%
11:00 +28°C° 0 mm 4 mps 704 mmHg 70%
12:00 +29°C° 0.3 mm 4 mps 703 mmHg 68%
13:00 +29°C° 0.3 mm 5 mps 702 mmHg 65%
14:00 +30°C° 0.3 mm 6 mps 702 mmHg 63%
15:00 +29°C° 0.2 mm 6 mps 701 mmHg 67%
16:00 +28°C° 0.2 mm 6 mps 701 mmHg 70%
17:00 +28°C° 0.2 mm 6 mps 701 mmHg 73%
18:00 +26°C° 0 mm 5 mps 702 mmHg 78%
19:00 +25°C° 0 mm 4 mps 702 mmHg 82%
20:00 +24°C° 0 mm 3 mps 702 mmHg 87%
21:00 +24°C° 0 mm 3 mps 702 mmHg 88%
22:00 +24°C° 0 mm 3 mps 703 mmHg 89%
23:00 +22°C° 0 mm 3 mps 703 mmHg 90%

28 September, Monday

Time Temperature Precipitation Wind Pressure Humidity
00:00 +22°C° 0 mm 3 mps 702 mmHg 90%
01:00 +23°C° 0 mm 2 mps 702 mmHg 90%
02:00 +21°C° 0 mm 2 mps 701 mmHg 90%
03:00 +21°C° 0 mm 2 mps 701 mmHg 90%
04:00 +21°C° 0 mm 2 mps 701 mmHg 90%
05:00 +21°C° 0 mm 2 mps 701 mmHg 90%
06:00 +23°C° 0 mm 2 mps 702 mmHg 86%
07:00 +24°C° 0 mm 2 mps 703 mmHg 81%
08:00 +25°C° 0 mm 3 mps 703 mmHg 77%
09:00 +26°C° 0 mm 3 mps 704 mmHg 71%
10:00 +28°C° 0 mm 3 mps 704 mmHg 66%
11:00 +29°C° 0 mm 4 mps 704 mmHg 60%
12:00 +29°C° 0.1 mm 4 mps 703 mmHg 60%
13:00 +30°C° 0.1 mm 4 mps 702 mmHg 60%
14:00 +30°C° 0.1 mm 5 mps 701 mmHg 59%
15:00 +29°C° 0.4 mm 5 mps 701 mmHg 64%
16:00 +29°C° 0.4 mm 5 mps 701 mmHg 68%
17:00 +28°C° 0.4 mm 5 mps 701 mmHg 72%
18:00 +27°C° 0.1 mm 5 mps 702 mmHg 77%
19:00 +26°C° 0.1 mm 4 mps 702 mmHg 83%
20:00 +23°C° 0.1 mm 4 mps 702 mmHg 88%
21:00 +23°C° 0 mm 4 mps 702 mmHg 89%
22:00 +23°C° 0 mm 4 mps 702 mmHg 89%
23:00 +22°C° 0 mm 3 mps 703 mmHg 89%

29 September, Tuesday

Time Temperature Precipitation Wind Pressure Humidity
00:00 +22°C° 0 mm 3 mps 702 mmHg 89%
01:00 +22°C° 0 mm 3 mps 702 mmHg 89%
02:00 +21°C° 0 mm 2 mps 701 mmHg 89%
03:00 +21°C° 0 mm 2 mps 701 mmHg 90%
04:00 +21°C° 0 mm 2 mps 701 mmHg 90%
05:00 +21°C° 0 mm 2 mps 701 mmHg 91%
06:00 +23°C° 0 mm 2 mps 702 mmHg 87%
07:00 +24°C° 0 mm 3 mps 702 mmHg 83%
08:00 +25°C° 0 mm 3 mps 703 mmHg 79%
09:00 +26°C° 0 mm 3 mps 703 mmHg 72%
10:00 +28°C° 0 mm 3 mps 703 mmHg 65%
11:00 +29°C° 0 mm 3 mps 703 mmHg 59%
12:00 +29°C° 0 mm 3 mps 703 mmHg 57%
13:00 +30°C° 0 mm 4 mps 702 mmHg 55%
14:00 +30°C° 0 mm 4 mps 701 mmHg 53%
15:00 +29°C° 0.2 mm 4 mps 701 mmHg 60%
16:00 +28°C° 0.2 mm 5 mps 700 mmHg 66%
17:00 +27°C° 0.2 mm 6 mps 700 mmHg 72%
18:00 +26°C° 0.1 mm 5 mps 701 mmHg 77%
19:00 +25°C° 0.1 mm 5 mps 701 mmHg 83%
20:00 +23°C° 0.1 mm 5 mps 702 mmHg 88%
21:00 +22°C° 0 mm 4 mps 702 mmHg 88%
22:00 +22°C° 0 mm 4 mps 702 mmHg 88%
23:00 +22°C° 0 mm 3 mps 702 mmHg 88%

30 September, Wednesday

Time Temperature Precipitation Wind Pressure Humidity
00:00 +22°C° 0 mm 3 mps 701 mmHg 89%
01:00 +21°C° 0 mm 3 mps 701 mmHg 90%
02:00 +21°C° 0 mm 2 mps 701 mmHg 91%
03:00 +21°C° 0 mm 2 mps 701 mmHg 91%
04:00 +21°C° 0 mm 2 mps 700 mmHg 91%
05:00 +21°C° 0 mm 2 mps 700 mmHg 92%
06:00 +21°C° 0 mm 2 mps 701 mmHg 87%
07:00 +23°C° 0 mm 2 mps 702 mmHg 83%
08:00 +24°C° 0 mm 3 mps 702 mmHg 79%
09:00 +25°C° 0 mm 3 mps 702 mmHg 72%
10:00 +27°C° 0 mm 3 mps 703 mmHg 65%
11:00 +28°C° 0 mm 3 mps 703 mmHg 59%
12:00 +29°C° 0 mm 3 mps 702 mmHg 58%
13:00 +29°C° 0 mm 4 mps 701 mmHg 57%
14:00 +30°C° 0 mm 5 mps 701 mmHg 55%
15:00 +29°C° 0 mm 5 mps 701 mmHg 59%
16:00 +28°C° 0 mm 5 mps 700 mmHg 63%
17:00 +28°C° 0 mm 5 mps 700 mmHg 67%
18:00 +26°C° 0 mm 5 mps 701 mmHg 74%
19:00 +25°C° 0 mm 5 mps 701 mmHg 81%
20:00 +23°C° 0 mm 4 mps 702 mmHg 88%
21:00 +22°C° 0 mm 4 mps 702 mmHg 89%
22:00 +21°C° 0 mm 3 mps 702 mmHg 90%
23:00 +21°C° 0 mm 3 mps 702 mmHg 92%
Show more